When you browse on this site, cookies collect data to enhance your experience and personalize the content and advertising you see.
Visit our Privacy Policy to learn more. By continuing to use the site, you agree to this use of cookies and data.
  • In Austria
  • List of Countries
  • For 7 days
  • Water Temperature
  • Satellite Maps
  • Weather Map
  • News
  • Weather Widgets
  • user-avatar
    Login

    Hourly Weather Ondjiwa

    Today, 19 February, Tuesday

    Time Temperature Precipitation Wind Pressure Humidity
    00:00 +25°C° 0 mm 0 mps 666 mmHg 49%
    01:00 +27°C° 0 mm 1 mps 666 mmHg 48%
    02:00 +26°C° 0 mm 1 mps 666 mmHg 48%
    03:00 +26°C° 0 mm 1 mps 666 mmHg 48%
    04:00 +26°C° 0 mm 1 mps 666 mmHg 48%
    05:00 +26°C° 0 mm 1 mps 666 mmHg 49%
    06:00 +26°C° 0 mm 1 mps 666 mmHg 50%
    07:00 +27°C° 0 mm 1 mps 667 mmHg 49%
    08:00 +29°C° 0 mm 2 mps 667 mmHg 42%
    09:00 +31°C° 0 mm 3 mps 668 mmHg 36%
    10:00 +34°C° 0 mm 4 mps 668 mmHg 30%
    11:00 +36°C° 0 mm 4 mps 668 mmHg 26%
    12:00 +37°C° 0 mm 4 mps 668 mmHg 22%
    13:00 +37°C° 0 mm 4 mps 667 mmHg 20%
    14:00 +37°C° 0 mm 4 mps 666 mmHg 21%
    15:00 +37°C° 0 mm 4 mps 666 mmHg 22%
    16:00 +37°C° 0 mm 3 mps 666 mmHg 23%
    17:00 +35°C° 0 mm 3 mps 666 mmHg 26%
    18:00 +32°C° 0 mm 2 mps 665 mmHg 30%
    19:00 +30°C° 0 mm 2 mps 665 mmHg 34%
    20:00 +30°C° 0 mm 2 mps 665 mmHg 34%
    21:00 +29°C° 0 mm 2 mps 666 mmHg 35%
    22:00 +29°C° 0 mm 1 mps 666 mmHg 36%
    23:00 +28°C° 0 mm 2 mps 666 mmHg 37%

    Tomorrow, 20 February, Wednesday

    Time Temperature Precipitation Wind Pressure Humidity
    00:00 +28°C° 0 mm 2 mps 666 mmHg 38%
    01:00 +28°C° 0 mm 2 mps 666 mmHg 39%
    02:00 +27°C° 0 mm 2 mps 666 mmHg 43%
    03:00 +26°C° 0 mm 2 mps 666 mmHg 47%
    04:00 +24°C° 0 mm 2 mps 665 mmHg 51%
    05:00 +24°C° 0 mm 2 mps 666 mmHg 54%
    06:00 +24°C° 0 mm 2 mps 666 mmHg 56%
    07:00 +24°C° 0 mm 2 mps 667 mmHg 58%
    08:00 +27°C° 0 mm 2 mps 668 mmHg 51%
    09:00 +29°C° 0 mm 3 mps 668 mmHg 43%
    10:00 +33°C° 0 mm 4 mps 669 mmHg 36%
    11:00 +34°C° 0 mm 4 mps 669 mmHg 31%
    12:00 +36°C° 0 mm 4 mps 669 mmHg 26%
    13:00 +37°C° 0 mm 4 mps 668 mmHg 22%
    14:00 +37°C° 0 mm 4 mps 668 mmHg 21%
    15:00 +37°C° 0 mm 4 mps 667 mmHg 20%
    16:00 +37°C° 0 mm 4 mps 667 mmHg 20%
    17:00 +35°C° 0 mm 3 mps 666 mmHg 23%
    18:00 +34°C° 0 mm 2 mps 666 mmHg 26%
    19:00 +31°C° 0 mm 2 mps 666 mmHg 29%
    20:00 +30°C° 0 mm 2 mps 667 mmHg 29%
    21:00 +30°C° 0 mm 2 mps 667 mmHg 30%
    22:00 +30°C° 0 mm 2 mps 668 mmHg 31%
    23:00 +29°C° 0 mm 2 mps 668 mmHg 32%

    Day after tomorrow, 21 February, Thursday

    Time Temperature Precipitation Wind Pressure Humidity
    00:00 +28°C° 0 mm 2 mps 668 mmHg 33%
    01:00 +27°C° 0 mm 2 mps 668 mmHg 34%
    02:00 +27°C° 0 mm 2 mps 667 mmHg 36%
    03:00 +26°C° 0 mm 2 mps 667 mmHg 37%
    04:00 +25°C° 0 mm 2 mps 667 mmHg 38%
    05:00 +25°C° 0 mm 2 mps 667 mmHg 40%
    06:00 +24°C° 0 mm 2 mps 668 mmHg 42%
    07:00 +22°C° 0 mm 3 mps 668 mmHg 44%
    08:00 +27°C° 0 mm 3 mps 669 mmHg 37%
    09:00 +30°C° 0 mm 4 mps 670 mmHg 31%
    10:00 +34°C° 0 mm 5 mps 671 mmHg 24%
    11:00 +35°C° 0 mm 5 mps 670 mmHg 21%
    12:00 +36°C° 0 mm 5 mps 670 mmHg 18%
    13:00 +39°C° 0 mm 5 mps 669 mmHg 15%
    14:00 +37°C° 0 mm 4 mps 669 mmHg 16%
    15:00 +37°C° 0 mm 4 mps 668 mmHg 16%
    16:00 +37°C° 0 mm 4 mps 667 mmHg 16%
    17:00 +35°C° 0 mm 3 mps 667 mmHg 20%
    18:00 +33°C° 0 mm 3 mps 667 mmHg 25%
    19:00 +29°C° 0 mm 2 mps 667 mmHg 29%
    20:00 +28°C° 0 mm 2 mps 667 mmHg 31%
    21:00 +28°C° 0 mm 2 mps 668 mmHg 33%
    22:00 +27°C° 0 mm 2 mps 669 mmHg 35%
    23:00 +26°C° 0 mm 2 mps 668 mmHg 35%

    22 February, Friday

    Time Temperature Precipitation Wind Pressure Humidity
    00:00 +26°C° 0 mm 2 mps 668 mmHg 36%
    01:00 +26°C° 0 mm 2 mps 668 mmHg 36%
    02:00 +24°C° 0 mm 1 mps 668 mmHg 40%
    03:00 +23°C° 0 mm 1 mps 667 mmHg 43%
    04:00 +22°C° 0 mm 1 mps 667 mmHg 46%
    05:00 +23°C° 0 mm 1 mps 667 mmHg 48%
    06:00 +23°C° 0 mm 1 mps 668 mmHg 50%
    07:00 +23°C° 0 mm 1 mps 668 mmHg 51%
    08:00 +26°C° 0 mm 1 mps 669 mmHg 45%
    09:00 +29°C° 0 mm 1 mps 670 mmHg 39%
    10:00 +32°C° 0 mm 2 mps 671 mmHg 33%
    11:00 +35°C° 0 mm 2 mps 670 mmHg 28%
    12:00 +36°C° 0 mm 3 mps 670 mmHg 24%
    13:00 +37°C° 0 mm 4 mps 669 mmHg 20%
    14:00 +37°C° 0 mm 3 mps 668 mmHg 21%
    15:00 +36°C° 0 mm 2 mps 667 mmHg 22%
    16:00 +36°C° 0 mm 2 mps 667 mmHg 22%
    17:00 +33°C° 0 mm 1 mps 667 mmHg 24%
    18:00 +31°C° 0 mm 1 mps 666 mmHg 26%
    19:00 +30°C° 0 mm 1 mps 666 mmHg 28%
    20:00 +29°C° 0 mm 1 mps 667 mmHg 30%
    21:00 +29°C° 0 mm 2 mps 667 mmHg 32%
    22:00 +28°C° 0 mm 2 mps 667 mmHg 34%
    23:00 +28°C° 0 mm 2 mps 667 mmHg 35%

    23 February, Saturday

    Time Temperature Precipitation Wind Pressure Humidity
    00:00 +28°C° 0 mm 2 mps 667 mmHg 37%
    01:00 +28°C° 0 mm 2 mps 667 mmHg 39%
    02:00 +26°C° 0 mm 2 mps 666 mmHg 44%
    03:00 +25°C° 0 mm 2 mps 666 mmHg 48%
    04:00 +24°C° 0 mm 1 mps 666 mmHg 53%
    05:00 +25°C° 0 mm 1 mps 666 mmHg 54%
    06:00 +25°C° 0 mm 1 mps 667 mmHg 55%
    07:00 +25°C° 0 mm 1 mps 667 mmHg 56%
    08:00 +28°C° 0 mm 1 mps 668 mmHg 46%
    09:00 +31°C° 0 mm 2 mps 668 mmHg 37%
    10:00 +35°C° 0 mm 2 mps 669 mmHg 27%
    11:00 +36°C° 0 mm 3 mps 668 mmHg 23%
    12:00 +37°C° 0 mm 3 mps 668 mmHg 20%
    13:00 +40°C° 0 mm 4 mps 667 mmHg 16%
    14:00 +38°C° 0 mm 3 mps 666 mmHg 16%
    15:00 +38°C° 0 mm 3 mps 666 mmHg 16%
    16:00 +38°C° 0 mm 3 mps 665 mmHg 16%
    17:00 +36°C° 0 mm 3 mps 665 mmHg 19%
    18:00 +34°C° 0 mm 2 mps 665 mmHg 22%
    19:00 +30°C° 0 mm 1 mps 665 mmHg 25%
    20:00 +29°C° 0 mm 1 mps 665 mmHg 26%
    21:00 +28°C° 0 mm 1 mps 665 mmHg 27%
    22:00 +27°C° 0 mm 1 mps 665 mmHg 28%
    23:00 +27°C° 0 mm 2 mps 665 mmHg 30%

    24 February, Sunday

    Time Temperature Precipitation Wind Pressure Humidity
    00:00 +26°C° 0 mm 2 mps 665 mmHg 33%
    01:00 +25°C° 0 mm 2 mps 665 mmHg 35%
    02:00 +24°C° 0 mm 2 mps 664 mmHg 41%
    03:00 +24°C° 0 mm 1 mps 664 mmHg 47%
    04:00 +23°C° 0 mm 1 mps 664 mmHg 54%
    05:00 +24°C° 0 mm 1 mps 665 mmHg 53%
    06:00 +24°C° 0 mm 2 mps 665 mmHg 52%
    07:00 +24°C° 0 mm 3 mps 666 mmHg 52%
    08:00 +27°C° 0 mm 3 mps 666 mmHg 44%
    09:00 +30°C° 0 mm 3 mps 667 mmHg 36%
    10:00 +34°C° 0 mm 3 mps 668 mmHg 28%
    11:00 +35°C° 0 mm 3 mps 667 mmHg 25%
    12:00 +36°C° 0 mm 4 mps 667 mmHg 22%
    13:00 +38°C° 0 mm 4 mps 666 mmHg 19%
    14:00 +37°C° 0 mm 4 mps 666 mmHg 20%
    15:00 +36°C° 0 mm 3 mps 665 mmHg 22%
    16:00 +36°C° 0 mm 2 mps 665 mmHg 23%
    17:00 +35°C° 0 mm 2 mps 665 mmHg 26%
    18:00 +32°C° 0 mm 2 mps 665 mmHg 28%
    19:00 +31°C° 0 mm 2 mps 665 mmHg 30%
    20:00 +30°C° 0 mm 2 mps 665 mmHg 31%
    21:00 +30°C° 0 mm 2 mps 665 mmHg 32%
    22:00 +29°C° 0 mm 2 mps 666 mmHg 33%
    23:00 +28°C° 0.2 mm 3 mps 665 mmHg 40%
    Show more